sat.trackr.live / text

‹ back to catalog

ONEWEB-0552

NORAD 56054 · 2023-043J

PAYLOAD ACTIVE UNKNOWN

§ Identity

Operator
Country
UK
Launch date
2023-03-26
Launch site
SRILR
Launch vehicle
Mass (kg)
RCS (m²)

Purposes: comms

External: N2YO · Heavens-Above · Gunter

§ Orbital elements

Epoch: 2026-09-20T03:31:44.980032Z

Period
108.94 min
Inclination
87.9275°
Eccentricity
0.0002167
Mean motion
13.21826419 rev/d
Perigee alt
1,176.1 km
Apogee alt
1,179.4 km
Semi-major
7,555.9 km
B*
2.0569e-4
RAAN
225.0786°
Arg perigee
75.0889°
Mean anomaly
285.0485°
Rev number
17,077

§ Raw data

ONEWEB-05521 56054U 23043J   26263.14704838  .00000098  00000+0  20569-3 0  99972 56054  87.9275 225.0786 0002167  75.0889 285.0485 13.21826419170774

JSON: /api/v1/satellites/56054 · /tle

For live sub-satellite position, see the globe view (requires WebGL).

§ Visibility from observer

Set your observer location to see the next 7 days of passes ≥ 10°. The values pass through the URL so the page stays shareable.

No JS? Fill the form by hand. The geolocation button needs JavaScript.